Terminal Aerodrome Forecast
Issued by NWS Pocatello, ID

Home | Current Version | Previous Version | Text Only | Print | Product List | Glossary On
Versions: 1 2 3 4 5 6 7 8 9 10 11 12 13 14
000
FTUS45 KPIH 231100
TAFIDA
TAF
KIDA 231120Z 2312/2412 VRB05KT P6SM SKC
     FM231900 21011KT P6SM BKN150
     FM240300 VRB05KT P6SM SCT150=

USA.gov is the U.S. government's official web portal to all federal, state and local government web resources and services.